Regional Weather Roundup
Issued by NWS

Home | Current Version | Previous Version | Graphics & Text | Print | Product List | Glossary On
Versions: 1 2 3 4 5 6 7 8 9 10 11 12 13 14 15 16 17 18 19 20 21 22 23 24 25 26 27 28 29 30 31 32 33 34 35 36 37 38 39 40 41 42 43 44 45 46 47 48 49 50
000
ASUS43 KBIS 042202
RWRND

NORTH DAKOTA REGIONAL WEATHER ROUNDUP
NATIONAL WEATHER SERVICE BISMARCK ND
400 PM CST SUN DEC 04 2016

NOTE: "FAIR" INDICATES FEW OR NO CLOUDS BELOW 12,000 FEET WITH NO
SIGNIFICANT WEATHER AND/OR OBSTRUCTIONS TO VISIBILITY.


NDZ001>003-009>011-017-042300-
NORTHWEST NORTH DAKOTA

CITY           SKY/WX    TMP DP  RH WIND       PRES   REMARKS
WILLISTON      CLEAR     32  22  66 S6        29.62S
MINOT          CLEAR     29  20  69 SW8       29.63F
MINOT AFB      CLEAR     21  17  84 SW2       29.62F
$$

NDZ018>021-031>035-040>046-042300-
SOUTHWEST NORTH DAKOTA

CITY           SKY/WX    TMP DP  RH WIND       PRES   REMARKS
BISMARCK       CLEAR     31  22  69 W6        29.69F
DICKINSON      CLEAR     29  21  72 SW5       29.62F
GARRISON         N/A     25  19  78 W3        29.64F
HETTINGER ARPT CLEAR     35  24  64 CALM      29.67F
$$

NDZ004>008-012>016-024-026-027-054-042300-
NORTHEAST NORTH DAKOTA

CITY           SKY/WX    TMP DP  RH WIND       PRES   REMARKS
GRAND FORKS    MOCLDY    32  28  85 W7        29.64S
GRND FRKS AFB  CLOUDY    32  27  83 NW10      29.64S
DEVILS LAKE    CLOUDY    26  24  92 W15       29.65R WCI  14
$$

NDZ022-023-025-028>030-036>039-047>053-042300-
SOUTHEAST NORTH DAKOTA

CITY           SKY/WX    TMP DP  RH WIND       PRES   REMARKS
FARGO          CLOUDY    34  28  79 W14       29.68S
JAMESTOWN      PTCLDY    34  28  79 W15       29.66S
$$




USA.gov is the U.S. government's official web portal to all federal, state and local government web resources and services.